Location: Days
(41.3591°N, 106.7339°W)
Time: 13:34:21
(UTC+00:00)

RS-15 - Pass Details

Date: 05 July 2022
Orbit: 1881 x 2163 km, 64.8° (Epoch: 13 August)

Event Time Altitude Azimuth Distance (km) Brightness Sun altitude
Rises 08:07:11 0° 321° (NW) 5,692 11.0 -24.6°
Reaches altitude 10° 08:11:19 10° 311° (NW) 4,670 10.3 -24.4°
Maximum altitude 08:20:56 29° 258° (WSW) 3,319 8.9 -23.9°
Enters shadow 08:24:27 25° 233° (SW) 3,496 8.9 -23.7°
